Location: Shenandoah County Park
(38.9356°N, 78.4524°W)
Time: 14:39:30
(UTC-04:00)

CAS-4B - Pass Details

Date: 26 April 2024
Orbit: 476 x 492 km, 43.0° (Epoch: 20 May)

Event Time Altitude Azimuth Distance (km) Brightness Sun altitude
Exits shadow 03:59:32 44° 3° (N) 673 ? -24.4°
Maximum altitude 03:59:35 44° 5° (N) 672 ? -24.4°
Drops below altitude 10° 04:03:14 10° 79° (E) 1,668 ? -23.9°
Sets 04:05:30 0° 86° (E) 2,552 ? -23.5°
